QPF
0.00 0.00 0.00 0.00 0.00 0.00 0.00 0.00 0.00 0.00 0.00 0.00 0.00 0.00 0.00 0.00 0.00 0.00 0.00 0.00 0.00 0.00 0.00 0.00 0.00 0.00 0.00 0.00 0.00 0.00 0.00 0.00 0.00 0.00 0.00 0.00 0.00 0.00 0.00 0.00 0.00 0.00
0.00 0.00 0.00 0.00 0.00 0.00 0.00 0.00 0.00 0.00 0.00 0.00 0.00 0.00 0.00 0.00 0.00 0.00 0.00 0.00 0.00 0.00 0.00 0.00 0.00 0.00 0.00 0.00 0.00 0.00 0.00 0.00 0.00 0.00 0.00 0.00 0.00 0.00 0.00 0.00 0.00 0.00
0.00 0.00 0.00 0.00 0.00 0.00 0.00 0.00 0.00 0.00 0.00 0.00 0.00 0.00 0.00 0.00 0.00 0.00 0.00 0.00 0.00 0.00 0.00 0.00 0.00 0.00 0.00 0.00 0.00 0.00 0.00 0.00 0.00 0.00 0.00 0.00 0.00 0.00 0.00 0.00 0.00 0.00
0.00 0.00 0.00 0.00 0.00 0.00 0.00 0.00 0.00 0.00 0.00 0.00 0.00 0.00 0.00 0.00 0.00 0.00 0.00 0.00 0.00 0.00 0.00 0.00 0.00 0.00 0.00 0.00 0.00 0.00 0.00 0.00 0.00 0.00 0.00 0.00 0.00 0.00 0.00 0.00 0.00 0.00
0.00 0.00 0.00 0.00 0.00 0.00 0.00 0.00 0.00 0.00 0.00 0.00 0.00 0.00 0.00 0.00 0.00 0.00 0.00 0.00 0.00 0.00 0.00 0.00 0.00 0.00 0.00 0.00 0.00 0.00 0.00 0.00 0.00 0.00 0.00 0.00 0.00 0.00 0.00 0.00 0.00 0.00
0.00 0.00 0.00 0.00 0.00 0.00 0.00 0.00 0.00 0.00 0.00 0.00 0.00 0.00 0.00 0.00 0.00 0.00 0.00 0.00 0.00 0.00 0.00 0.00 0.00 0.00 0.00 0.00 0.00 0.00 0.00 0.00 0.00 0.00 0.00 0.00 0.00 0.00 0.00 0.00 0.00 0.00
0.00 0.00 0.00 0.00 0.00 0.00 0.00 0.00 0.00 0.00 0.00 0.00 0.00 0.00 0.00 0.00 0.00 0.00 0.00 0.00 0.00 0.00 0.00 0.00 0.00 0.00 0.00 0.00 0.00 0.00 0.00 0.00 0.00 0.00 0.00 0.00 0.00 0.00 0.00 0.00 0.00 0.00
0.00 0.00 0.00 0.00 0.00 0.00 0.00 0.00 0.00 0.00 0.00 0.00 0.00 0.00 0.00 0.00 0.00 0.00 0.00 0.00 0.00 0.00 0.00 0.00 0.00 0.00 0.00 0.00 0.00 0.00 0.00 0.00 0.00 0.00 0.00 0.00 0.00 0.00 0.00 0.00 0.00 0.00
0.00 0.00 0.00 0.00 0.00 0.00 0.00 0.00 0.00 0.00 0.00 0.02 0.00 0.00 0.00 0.00 0.00 0.00 0.00 0.00 0.00 0.00 0.00 0.00 0.00 0.00 0.00 0.00 0.00 0.00 0.00 0.00 0.00 0.00 0.00 0.00 0.00 0.00 0.00 0.00 0.00 0.00
0.00 0.00 0.00 0.00 0.00 0.00 0.00 0.00 0.00 0.01 0.02 0.02 0.00 0.00 0.00 0.00 0.00 0.00 0.00 0.00 0.00 0.00 0.00 0.00 0.00 0.00 0.00 0.00 0.00 0.00 0.00 0.00 0.00 0.00 0.00 0.00 0.00 0.00 0.00 0.00 0.00 0.00
0.00 0.00 0.00 0.00 0.00 0.00 0.00 0.00 0.00 0.02 0.02 0.00 0.00 0.00 0.00 0.00 0.00 0.00 0.00 0.00 0.00 0.00 0.00 0.00 0.00 0.00 0.00 0.00 0.00 0.00 0.00 0.00 0.00 0.00 0.00 0.00 0.00 0.00 0.00 0.00 0.00 0.00
0.00 0.00 0.00 0.00 0.00 0.00 0.00 0.01 0.02 0.01 0.00 0.00 0.00 0.00 0.00 0.00 0.00 0.00 0.00 0.00 0.00 0.00 0.00 0.00 0.00 0.00 0.00 0.00 0.00 0.00 0.00 0.00 0.00 0.00 0.00 0.00 0.00 0.00 0.00 0.00 0.00 0.00
0.00 0.00 0.00 0.00 0.00 0.00 0.00 0.00 0.00 0.00 0.00 0.00 0.00 0.00 0.00 0.00 0.00 0.00 0.00 0.00 0.00 0.00 0.00 0.00 0.00 0.00 0.00 0.00 0.00 0.00 0.00 0.00 0.00 0.00 0.00 0.00 0.00 0.00 0.00 0.00 0.00 0.00
0.00 0.00 0.00 0.00 0.00 0.00 0.00 0.00 0.00 0.00 0.00 0.00 0.00 0.00 0.00 0.00 0.00 0.00 0.00 0.00 0.00 0.00 0.00 0.00 0.00 0.00 0.00 0.00 0.00 0.00 0.00 0.00 0.00 0.00 0.00 0.00 0.00 0.00 0.00 0.00 0.00 0.00
0.00 0.00 0.00 0.00 0.00 0.00 0.00 0.00 0.00 0.00 0.00 0.00 0.00 0.00 0.00 0.00 0.00 0.00 0.00 0.00 0.00 0.00 0.00 0.00 0.00 0.00 0.00 0.00 0.00 0.00 0.00 0.00 0.00 0.00 0.00 0.00 0.00 0.00 0.00 0.00 0.00 0.00
0.00 0.00 0.00 0.00 0.00 0.00 0.00 0.00 0.00 0.00 0.00 0.00 0.00 0.00 0.00 0.00 0.00 0.00 0.00 0.00 0.00 0.00 0.00 0.00 0.00 0.00 0.00 0.00 0.00 0.00 0.00 0.00 0.00 0.00 0.00 0.00 0.00 0.00 0.00 0.00 0.00 0.00
0.00 0.00 0.00 0.00 0.00 0.00 0.00 0.00 0.00 0.00 0.00 0.00 0.00 0.00 0.00 0.00 0.00 0.00 0.00 0.00 0.00 0.00 0.00 0.00 0.00 0.00 0.00 0.00 0.00 0.00 0.00 0.00 0.00 0.00 0.00 0.00 0.00 0.00 0.00 0.00 0.00 0.00
0.00 0.00 0.00 0.00 0.00 0.00 0.00 0.00 0.00 0.00 0.00 0.00 0.00 0.00 0.00 0.00 0.00 0.00 0.00 0.00 0.00 0.00 0.00 0.00 0.00 0.00 0.00 0.00 0.00 0.00 0.00 0.00 0.00 0.00 0.00 0.00 0.00 0.00 0.00 0.00 0.00 0.00
0.00 0.00 0.00 0.00 0.00 0.00 0.00 0.00 0.00 0.00 0.00 0.00 0.00 0.00 0.00 0.00 0.00 0.00 0.00 0.00 0.00 0.00 0.00 0.00 0.00 0.00 0.00 0.00 0.00 0.00 0.00 0.00 0.00 0.00 0.00 0.00 0.00 0.00 0.00 0.00 0.00 0.00
0.00 0.00 0.00 0.00 0.00 0.00 0.00 0.00 0.00 0.00 0.00 0.00 0.00 0.00 0.00 0.00 0.00 0.00 0.00 0.00 0.00 0.00 0.00 0.00 0.00 0.00 0.00 0.00 0.00 0.00 0.00 0.00 0.00 0.00 0.00 0.00 0.00 0.00 0.00 0.00 0.00 0.00
0.00 0.00 0.00 0.00 0.00 0.00 0.00 0.00 0.00 0.00 0.00 0.00 0.00 0.00 0.00 0.00 0.00 0.00 0.00 0.00 0.00 0.00 0.00 0.00 0.00 0.00 0.00 0.00 0.00 0.00 0.00 0.00 0.00 0.00 0.00 0.00 0.00 0.00 0.00 0.00 0.00 0.00
0.00 0.00 0.00 0.00 0.00 0.00 0.00 0.00 0.00 0.00 0.00 0.00 0.00 0.00 0.00 0.00 0.00 0.00 0.00 0.00 0.00 0.00 0.00 0.00 0.00 0.00 0.00 0.00 0.00 0.00 0.00 0.00 0.00 0.00 0.00 0.00 0.00 0.00 0.00 0.00 0.00 0.00
0.00 0.00 0.00 0.00 0.00 0.00 0.00 0.00 0.00 0.00 0.00 0.00 0.00 0.00 0.00 0.00 0.00 0.00 0.00 0.00 0.00 0.00 0.00 0.00 0.00 0.00 0.00 0.00 0.00 0.00 0.00 0.00 0.00 0.00 0.00 0.00 0.00 0.00 0.00 0.00 0.00 0.00
0.00 0.00 0.00 0.00 0.00 0.00 0.00 0.00 0.00 0.00 0.00 0.00 0.00 0.00 0.00 0.00 0.00 0.00 0.00 0.00 0.00 0.00 0.00 0.00 0.00 0.00 0.00 0.00 0.00 0.00 0.00 0.00 0.00 0.00 0.00 0.00 0.00 0.00 0.00 0.00 0.00 0.00
0.00 0.00 0.00 0.00 0.00 0.00 0.00 0.00 0.00 0.00 0.00 0.00 0.00 0.00 0.00 0.00 0.00 0.00 0.00 0.00 0.00 0.00 0.00 0.00 0.00 0.00 0.00 0.00 0.00 0.00 0.00 0.00 0.00 0.00 0.00 0.00 0.00 0.00 0.00 0.00 0.00 0.00
0.00 0.00 0.00 0.00 0.00 0.00 0.00 0.00 0.00 0.00 0.00 0.00 0.00 0.00 0.00 0.00 0.00 0.00 0.00 0.00 0.00 0.00 0.00 0.00 0.00 0.00 0.00 0.00 0.00 0.00 0.00 0.00 0.00 0.00 0.00 0.00 0.00 0.00 0.00 0.00 0.00 0.00
MSLP
1016.71 1016.86 1016.95 1017.03 1017.03 1017.03 1016.98 1017.03 1017.07 1017.03 1016.98 1017.07 1017.22 1017.18 1017.27 1017.22 1017.34 1017.39 1017.34 1017.39 1017.34 1017.34 1017.39 1017.27 1017.22 1017.34 1017.39 1017.34 1017.30 1017.30 1017.30 1017.27 1017.22 1017.22 1017.18 1017.18 1017.18 1017.15 1017.10 1017.07 1017.03 1016.91
1016.47 1016.54 1016.62 1016.71 1016.78 1016.74 1016.71 1016.66 1016.66 1016.71 1016.78 1016.86 1016.95 1017.03 1017.03 1017.07 1017.22 1017.30 1017.30 1017.34 1017.27 1017.27 1017.30 1017.27 1017.27 1017.30 1017.39 1017.34 1017.30 1017.34 1017.30 1017.30 1017.22 1017.18 1017.15 1017.10 1017.10 1017.10 1017.07 1017.03 1016.98 1016.91
1016.18 1016.30 1016.39 1016.47 1016.47 1016.42 1016.39 1016.39 1016.47 1016.51 1016.59 1016.66 1016.74 1016.91 1016.95 1016.91 1017.10 1017.22 1017.22 1017.27 1017.22 1017.22 1017.22 1017.22 1017.27 1017.22 1017.30 1017.27 1017.27 1017.27 1017.27 1017.22 1017.22 1017.15 1017.10 1017.10 1017.03 1017.03 1016.95 1016.98 1016.95 1016.86
1015.95 1015.95 1016.03 1016.07 1016.15 1016.15 1016.10 1016.27 1016.42 1016.42 1016.47 1016.59 1016.62 1016.66 1016.74 1016.78 1016.95 1017.15 1017.15 1017.18 1017.18 1017.15 1017.15 1017.22 1017.27 1017.15 1017.18 1017.27 1017.27 1017.27 1017.22 1017.18 1017.10 1017.07 1017.07 1017.03 1016.98 1016.95 1016.95 1016.86 1016.83 1016.83
1015.62 1015.71 1015.78 1015.78 1015.78 1015.78 1015.91 1016.10 1016.22 1016.34 1016.39 1016.34 1016.39 1016.47 1016.59 1016.74 1016.86 1017.03 1017.07 1017.18 1017.15 1017.07 1017.15 1017.15 1017.18 1017.15 1017.15 1017.18 1017.22 1017.22 1017.22 1017.18 1017.15 1017.15 1017.15 1017.10 1016.98 1016.98 1016.86 1016.86 1016.83 1016.78
1015.42 1015.42 1015.47 1015.51 1015.54 1015.62 1015.83 1015.91 1015.95 1016.07 1016.15 1016.27 1016.27 1016.22 1016.34 1016.51 1016.71 1016.91 1016.98 1017.07 1017.03 1016.98 1017.03 1017.03 1017.03 1017.03 1017.10 1017.07 1017.18 1017.18 1017.18 1017.22 1017.15 1017.15 1017.18 1017.15 1017.03 1016.95 1016.86 1016.78 1016.78 1016.74
1015.22 1015.22 1015.30 1015.34 1015.42 1015.51 1015.62 1015.66 1015.74 1015.78 1015.91 1015.91 1016.03 1016.18 1016.22 1016.42 1016.54 1016.71 1016.78 1016.78 1016.78 1016.83 1016.86 1016.86 1016.78 1016.74 1016.86 1016.95 1017.03 1017.07 1017.15 1017.10 1017.07 1017.07 1017.03 1016.98 1016.98 1016.86 1016.83 1016.78 1016.66 1016.66
1014.98 1014.98 1015.03 1015.10 1015.18 1015.30 1015.39 1015.47 1015.54 1015.59 1015.62 1015.86 1016.07 1016.07 1016.15 1016.15 1016.30 1016.34 1016.42 1016.54 1016.66 1016.66 1016.66 1016.59 1016.51 1016.47 1016.54 1016.62 1016.78 1016.91 1016.95 1016.95 1016.91 1016.86 1016.86 1016.86 1016.83 1016.78 1016.71 1016.66 1016.59 1016.59
1014.83 1014.86 1014.95 1015.03 1015.07 1015.10 1015.18 1015.27 1015.30 1015.39 1015.54 1015.66 1015.66 1015.71 1015.91 1015.98 1015.98 1016.10 1016.22 1016.34 1016.42 1016.42 1016.34 1016.30 1016.30 1016.39 1016.42 1016.42 1016.51 1016.62 1016.74 1016.78 1016.66 1016.59 1016.66 1016.71 1016.78 1016.71 1016.62 1016.59 1016.59 1016.54
1014.83 1014.83 1014.86 1014.91 1014.98 1014.98 1015.03 1015.03 1015.15 1015.27 1015.34 1015.39 1015.39 1015.54 1015.71 1015.78 1015.78 1015.86 1016.07 1016.18 1016.22 1016.22 1016.18 1016.15 1016.18 1016.18 1016.22 1016.34 1016.22 1016.39 1016.54 1016.47 1016.51 1016.47 1016.47 1016.54 1016.59 1016.59 1016.54 1016.54 1016.51 1016.42
1014.71 1014.74 1014.83 1014.86 1014.86 1014.86 1014.91 1014.95 1015.07 1015.15 1015.22 1015.22 1015.34 1015.51 1015.54 1015.62 1015.66 1015.66 1015.78 1015.91 1015.98 1015.98 1015.95 1015.95 1015.95 1015.86 1016.03 1016.15 1016.10 1016.18 1016.18 1016.22 1016.27 1016.34 1016.39 1016.42 1016.51 1016.51 1016.42 1016.42 1016.39 1016.39
1014.51 1014.62 1014.71 1014.71 1014.74 1014.86 1014.83 1014.86 1014.91 1014.98 1015.07 1015.15 1015.18 1015.30 1015.39 1015.47 1015.51 1015.54 1015.59 1015.66 1015.66 1015.66 1015.71 1015.78 1015.74 1015.71 1015.83 1015.83 1015.91 1015.98 1016.03 1016.07 1016.07 1016.15 1016.18 1016.18 1016.30 1016.34 1016.22 1016.22 1016.22 1016.18
1014.39 1014.34 1014.39 1014.42 1014.51 1014.51 1014.51 1014.66 1014.78 1014.78 1014.86 1014.95 1014.95 1015.03 1015.15 1015.22 1015.30 1015.34 1015.34 1015.42 1015.39 1015.47 1015.51 1015.54 1015.54 1015.54 1015.66 1015.71 1015.78 1015.83 1015.86 1015.91 1015.98 1016.03 1016.03 1016.10 1016.15 1016.15 1016.10 1016.10 1016.10 1016.07
1014.15 1014.15 1014.18 1014.18 1014.18 1014.27 1014.34 1014.42 1014.54 1014.62 1014.66 1014.66 1014.74 1014.86 1014.95 1014.98 1015.07 1015.10 1015.07 1015.15 1015.10 1015.15 1015.10 1015.15 1015.30 1015.34 1015.42 1015.47 1015.54 1015.59 1015.62 1015.74 1015.83 1015.86 1015.91 1015.98 1015.98 1015.98 1015.95 1015.91 1015.95 1015.91
1013.95 1014.10 1014.03 1014.07 1014.10 1014.22 1014.27 1014.34 1014.42 1014.39 1014.39 1014.47 1014.54 1014.59 1014.59 1014.62 1014.66 1014.74 1014.83 1014.91 1014.91 1014.91 1014.91 1014.91 1014.98 1015.07 1015.10 1015.22 1015.39 1015.47 1015.42 1015.54 1015.71 1015.74 1015.74 1015.78 1015.78 1015.78 1015.78 1015.78 1015.74 1015.74
1013.83 1013.98 1014.07 1014.10 1014.10 1014.10 1014.10 1014.18 1014.30 1014.39 1014.42 1014.42 1014.47 1014.42 1014.42 1014.42 1014.51 1014.54 1014.51 1014.54 1014.62 1014.66 1014.78 1014.83 1014.78 1014.66 1014.66 1014.74 1014.91 1014.98 1015.22 1015.47 1015.54 1015.54 1015.59 1015.59 1015.62 1015.62 1015.66 1015.62 1015.59 1015.59
1013.78 1013.83 1013.98 1014.10 1013.95 1013.91 1013.95 1014.07 1014.15 1014.18 1014.27 1014.30 1014.27 1014.27 1014.27 1014.27 1014.30 1014.39 1014.39 1014.34 1014.34 1014.34 1014.42 1014.51 1014.47 1014.34 1014.22 1014.39 1014.51 1014.66 1014.95 1015.15 1015.22 1015.30 1015.34 1015.39 1015.42 1015.47 1015.42 1015.39 1015.39 1015.39
1013.51 1013.66 1013.91 1013.83 1013.86 1013.83 1013.78 1013.74 1013.91 1014.07 1014.07 1014.07 1014.10 1014.10 1014.07 1014.07 1014.15 1014.10 1014.03 1014.07 1014.10 1014.18 1014.22 1014.18 1014.18 1014.07 1014.07 1014.15 1014.30 1014.42 1014.51 1014.66 1014.86 1014.98 1015.07 1015.10 1015.15 1015.18 1015.18 1015.22 1015.27 1015.22
1013.18 1013.34 1013.51 1013.59 1013.66 1013.62 1013.59 1013.62 1013.74 1013.86 1013.86 1013.91 1013.86 1013.71 1013.74 1013.91 1013.83 1013.83 1013.86 1013.78 1013.86 1013.95 1013.95 1013.86 1013.86 1013.74 1013.86 1013.91 1013.98 1014.10 1014.22 1014.42 1014.62 1014.71 1014.74 1014.78 1014.83 1014.86 1014.95 1015.03 1015.10 1015.10
1013.03 1013.07 1013.22 1013.22 1013.27 1013.34 1013.34 1013.42 1013.59 1013.59 1013.47 1013.39 1013.42 1013.59 1013.71 1013.66 1013.62 1013.66 1013.59 1013.62 1013.62 1013.62 1013.59 1013.59 1013.54 1013.47 1013.59 1013.62 1013.71 1013.78 1013.95 1014.10 1014.27 1014.39 1014.47 1014.51 1014.51 1014.54 1014.62 1014.71 1014.83 1014.86
1012.74 1012.74 1012.83 1012.91 1012.98 1013.07 1013.18 1013.22 1013.27 1013.22 1013.27 1013.18 1013.22 1013.27 1013.34 1013.34 1013.30 1013.39 1013.34 1013.30 1013.30 1013.30 1013.34 1013.34 1013.22 1013.10 1013.34 1013.42 1013.47 1013.59 1013.71 1013.86 1013.98 1014.15 1014.27 1014.34 1014.34 1014.34 1014.30 1014.34 1014.42 1014.54
1012.54 1012.54 1012.54 1012.54 1012.62 1012.74 1012.95 1012.95 1012.91 1012.91 1012.86 1012.78 1012.95 1012.98 1012.98 1012.98 1013.03 1013.07 1013.07 1013.03 1012.91 1012.95 1013.07 1013.07 1012.83 1012.78 1012.95 1013.10 1013.18 1013.27 1013.51 1013.78 1013.86 1013.95 1013.98 1014.07 1014.15 1014.18 1014.18 1014.15 1014.18 1014.22
1012.22 1012.27 1012.22 1012.22 1012.27 1012.34 1012.42 1012.47 1012.51 1012.54 1012.51 1012.51 1012.71 1012.71 1012.74 1012.78 1012.66 1012.62 1012.54 1012.54 1012.54 1012.62 1012.71 1012.62 1012.51 1012.39 1012.59 1012.66 1012.83 1012.95 1013.47 1013.62 1013.66 1013.74 1013.83 1013.83 1013.78 1013.86 1013.91 1013.95 1013.95 1013.98
1011.74 1011.83 1011.86 1011.86 1011.95 1011.98 1011.95 1011.91 1011.95 1012.03 1012.07 1012.10 1012.22 1012.22 1012.34 1012.22 1012.15 1012.18 1012.22 1012.22 1012.22 1012.22 1012.22 1012.22 1012.07 1011.91 1012.07 1012.27 1012.34 1012.66 1012.86 1012.98 1013.27 1013.42 1013.42 1013.54 1013.54 1013.62 1013.71 1013.71 1013.59 1013.42
1011.18 1011.30 1011.39 1011.42 1011.47 1011.42 1011.42 1011.51 1011.51 1011.47 1011.34 1011.51 1011.62 1011.62 1011.59 1011.54 1011.71 1011.78 1011.74 1011.78 1011.83 1011.78 1011.74 1011.86 1011.74 1011.59 1011.66 1011.83 1011.95 1012.27 1012.66 1012.74 1012.95 1013.15 1013.18 1013.22 1013.30 1013.30 1013.34 1013.39 1013.30 1013.18
1010.74 1010.83 1010.83 1010.91 1010.86 1010.83 1010.86 1010.86 1010.78 1010.91 1010.98 1011.07 1011.03 1011.07 1011.07 1011.15 1011.30 1011.39 1011.30 1011.18 1011.18 1011.34 1011.42 1011.39 1011.42 1011.30 1011.27 1011.42 1011.62 1011.98 1012.34 1012.39 1012.62 1012.86 1012.86 1012.74 1012.91 1012.95 1012.91 1012.95 1012.95 1012.91
Thickness
5648 5645 5644 5642 5640 5639 5637 5636 5635 5633 5631 5630 5627 5625 5624 5622 5620 5618 5617 5616 5614 5613 5612 5612 5611 5609 5608 5607 5606 5605 5604 5604 5603 5602 5601 5601 5600 5599 5599 5598 5598 5598
5651 5650 5647 5645 5644 5642 5641 5640 5638 5637 5635 5632 5630 5628 5626 5624 5622 5620 5618 5617 5616 5615 5614 5613 5612 5610 5608 5608 5606 5605 5604 5603 5602 5602 5600 5600 5599 5598 5597 5597 5596 5595
5654 5652 5651 5648 5647 5646 5645 5643 5641 5639 5637 5634 5632 5629 5628 5626 5624 5621 5620 5619 5617 5616 5615 5614 5612 5611 5610 5608 5607 5606 5605 5604 5602 5601 5600 5599 5598 5597 5596 5595 5594 5593
5656 5655 5653 5652 5650 5649 5647 5644 5642 5640 5638 5636 5634 5632 5630 5628 5625 5622 5621 5619 5618 5617 5616 5614 5613 5612 5611 5609 5608 5606 5605 5604 5603 5602 5600 5599 5598 5597 5596 5595 5593 5592
5658 5656 5655 5654 5652 5650 5648 5646 5643 5641 5639 5636 5635 5633 5631 5629 5626 5623 5621 5619 5618 5617 5616 5614 5613 5612 5611 5609 5608 5607 5605 5604 5603 5601 5600 5598 5598 5596 5595 5594 5592 5591
5659 5658 5657 5655 5654 5652 5649 5646 5644 5642 5640 5638 5637 5634 5632 5630 5626 5624 5622 5620 5619 5617 5616 5615 5614 5613 5611 5609 5608 5606 5605 5604 5602 5601 5599 5598 5597 5596 5595 5593 5592 5591
5660 5659 5658 5656 5654 5652 5649 5647 5645 5642 5641 5639 5636 5635 5632 5630 5627 5624 5623 5621 5620 5618 5617 5615 5615 5614 5612 5610 5608 5606 5604 5603 5602 5601 5599 5598 5597 5595 5594 5593 5591 5590
5660 5659 5658 5656 5654 5652 5650 5648 5646 5643 5641 5638 5636 5634 5632 5630 5627 5626 5624 5622 5620 5619 5617 5617 5616 5614 5612 5611 5609 5607 5605 5603 5602 5601 5599 5597 5596 5595 5594 5592 5590 5589
5661 5659 5657 5655 5653 5652 5650 5648 5646 5644 5641 5639 5637 5634 5631 5630 5628 5626 5623 5621 5620 5618 5618 5617 5615 5614 5612 5610 5609 5607 5604 5603 5602 5601 5599 5596 5595 5594 5592 5591 5589 5588
5661 5659 5657 5655 5653 5652 5650 5649 5646 5644 5641 5639 5637 5634 5631 5629 5628 5625 5623 5621 5619 5618 5617 5616 5614 5613 5611 5610 5608 5606 5603 5603 5601 5600 5598 5596 5594 5593 5591 5590 5589 5587
5660 5658 5656 5654 5652 5650 5649 5648 5645 5643 5641 5639 5637 5634 5631 5629 5627 5625 5623 5620 5619 5618 5617 5615 5614 5612 5611 5609 5607 5605 5603 5602 5601 5599 5597 5595 5593 5591 5590 5589 5587 5586
5659 5658 5655 5654 5652 5650 5648 5647 5645 5642 5640 5638 5636 5634 5631 5629 5627 5625 5623 5620 5619 5617 5616 5615 5614 5612 5610 5608 5606 5604 5602 5601 5599 5597 5596 5594 5592 5590 5589 5588 5586 5585
5660 5658 5656 5654 5652 5651 5648 5647 5645 5642 5640 5638 5636 5634 5631 5629 5627 5624 5623 5621 5619 5617 5615 5614 5613 5612 5609 5607 5605 5603 5602 5600 5598 5596 5594 5592 5591 5589 5588 5586 5585 5583
5660 5658 5656 5655 5653 5650 5648 5646 5644 5641 5640 5638 5636 5633 5631 5629 5627 5625 5623 5621 5619 5617 5615 5613 5612 5610 5609 5607 5604 5603 5601 5599 5596 5595 5592 5591 5588 5587 5586 5585 5583 5582
5659 5656 5655 5653 5651 5649 5647 5645 5643 5641 5639 5637 5635 5633 5631 5629 5627 5625 5623 5621 5619 5617 5615 5612 5610 5609 5608 5606 5603 5601 5599 5597 5594 5593 5591 5589 5587 5585 5584 5583 5581 5580
5658 5655 5653 5651 5649 5647 5646 5643 5641 5639 5637 5635 5634 5632 5631 5629 5627 5624 5623 5620 5619 5617 5614 5612 5610 5609 5608 5606 5603 5601 5598 5595 5592 5591 5589 5588 5586 5584 5582 5581 5579 5578
5657 5654 5651 5649 5647 5646 5643 5641 5639 5637 5635 5633 5632 5630 5629 5627 5625 5623 5622 5620 5618 5616 5613 5612 5610 5609 5608 5606 5603 5601 5598 5595 5592 5590 5588 5586 5585 5583 5581 5579 5577 5576
5655 5653 5650 5647 5646 5645 5643 5641 5638 5636 5634 5632 5630 5629 5627 5626 5624 5622 5621 5619 5617 5615 5613 5611 5610 5609 5607 5604 5602 5600 5598 5595 5592 5589 5587 5585 5583 5582 5580 5577 5575 5574
5654 5652 5649 5646 5645 5643 5642 5640 5637 5634 5634 5632 5631 5629 5627 5625 5623 5621 5620 5618 5617 5615 5613 5611 5610 5608 5606 5604 5601 5599 5597 5594 5591 5588 5586 5584 5583 5581 5578 5576 5574 5571
5653 5651 5648 5646 5644 5643 5641 5639 5636 5634 5634 5632 5631 5628 5626 5624 5622 5621 5619 5617 5616 5615 5612 5610 5609 5608 5606 5603 5601 5599 5596 5593 5590 5587 5585 5583 5582 5580 5578 5576 5573 5570
5653 5651 5648 5646 5644 5642 5639 5637 5636 5634 5633 5631 5630 5628 5625 5624 5622 5620 5618 5617 5616 5614 5612 5610 5608 5607 5604 5601 5600 5598 5595 5592 5589 5586 5583 5581 5580 5579 5577 5575 5572 5570
5653 5651 5649 5647 5644 5641 5638 5636 5634 5634 5633 5631 5629 5627 5625 5623 5621 5619 5618 5617 5615 5613 5611 5610 5609 5607 5604 5601 5599 5597 5593 5590 5588 5585 5583 5580 5578 5577 5575 5573 5571 5569
5653 5650 5649 5647 5645 5641 5638 5637 5635 5633 5632 5630 5627 5625 5623 5621 5620 5620 5618 5617 5615 5613 5611 5610 5610 5608 5605 5601 5599 5596 5592 5589 5586 5584 5582 5579 5577 5575 5573 5570 5569 5567
5654 5651 5649 5647 5645 5643 5641 5638 5635 5633 5631 5630 5627 5625 5624 5622 5622 5620 5619 5617 5615 5614 5612 5611 5610 5609 5606 5603 5600 5596 5592 5589 5586 5583 5580 5578 5576 5574 5570 5568 5567 5566
5654 5651 5649 5647 5646 5645 5643 5640 5637 5634 5632 5630 5628 5626 5626 5624 5622 5620 5619 5617 5615 5614 5613 5610 5609 5609 5607 5604 5601 5596 5592 5589 5586 5582 5579 5577 5575 5572 5569 5567 5564 5563
5655 5652 5650 5648 5646 5645 5644 5642 5639 5637 5634 5631 5630 5628 5627 5625 5623 5620 5619 5619 5617 5614 5612 5610 5609 5608 5607 5605 5601 5596 5591 5588 5585 5581 5579 5577 5574 5571 5569 5566 5563 5561